Regional Weather Roundup
Issued by NWS

Home | Current Version | Previous Version | Graphics & Text | Print | Product List | Glossary On
Versions: 1 2 3 4 5 6 7 8 9 10 11 12 13 14 15 16 17 18 19 20 21 22 23 24 25 26 27 28 29 30 31 32 33 34 35 36 37 38 39 40 41 42 43 44 45 46 47 48 49 50
000
ASUS43 KMKX 221421
RWRWI

WISCONSIN REGIONAL WEATHER ROUNDUP
NATIONAL WEATHER SERVICE MILWAUKEE/SULLIVAN WI
900 AM CDT FRI AUG 22 2014

NOTE: "FAIR" INDICATES FEW OR NO CLOUDS BELOW 12,000 FEET WITH NO
SIGNIFICANT WEATHER AND/OR OBSTRUCTIONS TO VISIBILITY.

WIZ001-002-006>008-014>016-023>028-221500-
NORTHWEST WISCONSIN

CITY           SKY/WX    TMP DP  RH WIND       PRES   REMARKS
SUPERIOR ARPT  LGT RAIN  61  60  99 E12       29.96S
ASHLAND        CLOUDY    64  63  96 N9        29.96R FOG
HAYWARD        CLOUDY    69  68  96 NE3       29.94R FOG
SIREN          CLOUDY    64  63  97 CALM      29.95R FOG
RICE LAKE      FOG       71  70  96 CALM      29.94R VSB 3/4
LADYSMITH      FOG       70  69  96 E7        29.94S VSB 1
EAU CLAIRE     CLOUDY    73  73 100 CALM      29.90S FOG
MENOMONIE      CLOUDY    74  72  94 CALM      29.91S
NEW RICHMOND   CLOUDY    67  67 100 N5        29.94R FOG
OSCEOLA        CLOUDY    66  66 100 N5        29.96S FOG
$$

WIZ003>005-009-010-017-018-221500-
NORTH CENTRAL WISCONSIN

CITY           SKY/WX    TMP DP  RH WIND       PRES   REMARKS
WOODRUFF       CLOUDY    66  64  93 SE3       29.97R FOG
RHINELANDER    FOG       64  64 100 E5        29.97S VSB 1
EAGLE RIVER    CLOUDY    64  64  99 CALM      29.97R FOG
LAND O LAKES   CLOUDY    65  65  97 E3        29.99R FOG
PHILLIPS       CLOUDY    66  66  99 CALM      29.95R FOG
TOMAHAWK       CLOUDY    65  64  96 CALM      29.97R FOG
MEDFORD        FOG       67  67 100 SE5       29.95R VSB 1/4
MERRILL        DRZL/FOG  66  66 100 SE7       29.95S VSB 1
$$

WIZ029-030-035-036-043>047-221500-
CENTRAL WISCONSIN

CITY           SKY/WX    TMP DP  RH WIND       PRES   REMARKS
WAUSAU         CLOUDY    66  65  96 SE7       29.94R FOG
MOSINEE        FOG       66  66 100 E5        29.96S VSB 1
MARSHFIELD     FOG       71  70  96 SE7       29.94R VSB 1/4
STEVENS POINT  CLOUDY    66  66 100 E6        29.96S FOG
WAUPACA        FOG       70  69  95 CALM      29.96R VSB<1/4
WAUTOMA        CLOUDY    73  73 100 CALM      29.94F FOG
WISC RAPIDS    CLOUDY    73  70  90 SE7       29.95S
CAMP DOUGLAS   FOG       72  72 100 SE5       29.94R VSB 1
$$

WIZ011>013-019>022-031-037>040-048>050-221500-
NORTHEAST WISCONSIN

CITY           SKY/WX    TMP DP  RH WIND       PRES   REMARKS
ANTIGO         CLOUDY    64  64 100 SE8       29.97S FOG
STURGEON BAY   CLOUDY    68  64  88 S5        29.97S
GREEN BAY      CLOUDY    70  68  93 SE5       29.95S
MANITOWOC      CLOUDY    70  69  97 S7        29.96F FOG
APPLETON         N/A     70  68  94 VRB5      29.96S FOG
CLINTONVILLE   FOG       66  66 100 E3        29.95S VSB 3/4
OSHKOSH        CLOUDY    72  70  93 E6        29.94F FOG
$$

WIZ032>034-041-042-053>061-221500-
SOUTHWEST WISCONSIN

CITY           SKY/WX    TMP DP  RH WIND       PRES   REMARKS
LA CROSSE      CLOUDY    75  72  90 S7        29.91R FOG
SPARTA         CLOUDY    72  70  94 CALM      29.93S
VIROQUA        CLOUDY    72  72 100 CALM      29.94F
BOSCOBEL       CLOUDY    74  72  93 E3        29.93S FOG
PRAIRIE DU CHI CLOUDY    73  71  92 E5        29.92R FOG
PLATTEVILLE    CLOUDY    74  73  96 E3        29.95R
$$

WIZ056-057-062-063-064-067-068-221500-
SOUTH CENTRAL WISCONSIN

CITY           SKY/WX    TMP DP  RH WIND       PRES   REMARKS
BARABOO/DELLS  CLOUDY    74  71  92 CALM      29.94S
LONE ROCK      CLOUDY    78  73  84 CALM      29.94R HX  81
WATERTOWN      CLOUDY    73  73 100 S3        29.95S FOG
MADISON        CLOUDY    75  72  90 S5        29.95R FOG
MIDDLETON      CLOUDY    76  76  99 SE5       29.95R
MONROE         CLOUDY    73  72  94 S6        29.95R FOG
JANESVILLE     MOSUNNY   79  73  83 CALM      29.93S HX  82
$$

WIZ051-052-058>065-066-070>072-221500-
SOUTHEAST WISCONSIN

CITY           SKY/WX    TMP DP  RH WIND       PRES   REMARKS
MILWAUKEE      FOG       72  70  93 NE6       29.95S VSB 1/4
WAUKESHA       PTSUNNY   70  70 100 CALM      29.96S FOG
MILWAUKEE/TIMM NOT AVBL
RACINE         CLOUDY    76  71  85 CALM      29.96S
BURLINGTON     CLOUDY    71  71 100 CALM      29.94F FOG
KENOSHA        CLOUDY    73  72  96 CALM      29.94F
FOND DU LAC    CLOUDY    75  70  84 CALM      29.94S
SHEBOYGAN      CLOUDY    69  68  96 E3        29.96S FOG
WEST BEND      FOG       70  68  94 CALM      29.96S VSB 1/4
JUNEAU         HAZE      72  48  42 SE3       29.95F VSB 1
$$

LSZ147-162-221500-
LAKE SUPERIOR

STATION/POSITION TIME  TEMP    WIND        PRES    WAVE
                       AIR SEA DIR/SP/G            HT/PER
                 (UTC) (F)     (DEG/KT/KT) (MB)    (FT/S)
W MID LAKE BUOY  1350   58 59   40/ 12/ 14 1014.5R   2/ 4
DEVILS ISLAND    1400   59      60/ 14/ 15 1014.7R
PORT WING        1340   58      40/  9/ 10 1014.6R
SAXON HARBOR     1300   67      CALM  /  5 1013.5S
$$

LMZ867-665-643>646-221500-
LAKE MICHIGAN

STATION/POSITION TIME  TEMP    WIND        PRES    WAVE
                       AIR SEA DIR/SP/G            HT/PER
                 (UTC) (F)     (DEG/KT/KT) (MB)    (FT/S)
N MID LAKE BUOY  1350   65 64  110/  6/  8 1014.6R   0
NORTHPORT PIER   1300   65     100/  6/  7 1014.6S
SISTER BAY       1211   67        CALM       N/A
KEWAUNEE LAKESHO 1400   66     140/  1/  2 1013.7R
SHEBOYGAN LAKESH 1400   67 64   80/  4/  4 1014.5S
ATWATER BUOY     1400   69      50/  6/  6 1015.3R
MILWAUKEE LAKESH 1400   69      40/  8/  9   N/A
S MID LAKE BUOY  1350   69 69   90/  2/  4 1014.3R   0
KENOSHA   LAKESH 1400   71      60/  4/  4 1013.5S
$$

TC  - TEMPERATURE IN CELSIUS
VSB - VISIBILITY IN STATUTE MILES
WCI - WIND CHILL INDEX
HX  - HEAT INDEX



USA.gov is the U.S. government's official web portal to all federal, state and local government web resources and services.